Location: Alfords
(31.4624°N, 83.9238°W)
Time: 11:35:18
(UTC+00:00)

Envisat - Visible Passes

Search period start: 17 September 2021 00:00
Search period end: 27 September 2021 00:00
Orbit: 764 x 766 km, 98.2° (Epoch: 17 September)

Date Brightness Start Highest point End Pass type
(mag) Time Alt. Az. Time Alt. Az. Time Alt. Az.
17 Sep 3.1 10:40:56 10° NNE 10:46:01 85° ESE 10:51:06 10° SSW visible
18 Sep 4.7 10:04:33 10° NNE 10:09:08 34° E 10:13:42 10° SSE visible
19 Sep 6.0 09:29:35 10° ENE 09:32:04 14° E 09:34:33 10° ESE visible
20 Sep 3.5 10:29:28 10° NNE 10:34:31 65° E 10:39:32 10° S visible
21 Sep 5.2 09:53:23 10° NE 09:57:35 26° E 10:01:45 10° SSE visible
22 Sep 3.0 10:54:47 10° N 10:59:49 68° WNW 11:04:51 10° SSW visible
23 Sep 4.0 10:18:05 10° NNE 10:23:00 48° E 10:27:53 10° S visible
24 Sep 5.6 09:42:21 10° NE 09:46:00 20° E 09:49:38 10° SE visible
25 Sep 3.0 10:43:14 10° NNE 10:48:20 88° WNW 10:53:25 10° SSW visible
26 Sep 4.6 10:06:47 10° NNE 10:11:28 37° E 10:16:07 10° SSE visible
